[[{"header":{"parameterUnit":"m.s-1","parameterCategory":1,"la1":30.2991,"la2":30.254,"lo1":-89.0895,"lo2":-89.0444,"dy":0.0017,"dx":0.0017,"nx":28,"ny":28,"refTime":"2025-09-16T21:00:00:Z","depth":0,"parameterNumber":2,"parameterNumberName":"U-component_of_WINDS"},"data":[0,0,0,0,0,0,0,0,0,0,0,0,0,0,0,0,0,0,0,0,0,0,0,0,0,0,0,0,0,0,0,0,0,0,0,0,0,0,0,0,0,0,0,0,0,0,0,0,0,0,0,0,0,0,0,0,0,0,-0.2791,-0.2791,0,-0.2776,-0.2776,-0.2775,-0.2744,-0.2743,-0.2743,-0.2742,-0.2727,-0.2727,-0.2728,0,0,0,0,0,0,0,0,0,0,0,0,0,-0.2795,-0.2795,-0.2791,-0.2791,-0.2791,-0.2776,-0.2776,-0.2775,-0.2744,-0.2743,-0.2743,-0.2742,-0.2727,-0.2727,-0.2728,0,0,0,0,0,0,0,0,0,0,0,0,0,-0.2788,-0.2795,-0.2791,-0.2773,-0.2772,-0.2776,-0.2776,-0.2775,-0.2744,-0.2743,-0.2742,-0.2741,-0.2727,-0.2727,-0.2728,-0.2748,0,0,-0.2728,-0.2729,0,0,0,0,0,0,0,0,-0.2788,-0.2788,-0.2776,-0.2775,-0.2773,-0.2761,-0.2771,-0.2766,-0.2744,-0.2755,-0.2742,-0.2741,-0.2739,-0.2738,-0.2738,-0.2748,-0.2747,-0.2728,-0.2729,-0.2729,-0.2729,0,0,0,0,0,0,0,-0.2789,-0.2788,-0.2785,-0.2776,-0.2774,-0.2767,-0.2764,-0.277,-0.2752,-0.2754,-0.2751,-0.275,-0.2738,-0.2737,-0.2737,-0.2747,-0.2728,-0.2729,-0.2729,-0.2729,-0.2774,-0.2775,0,0,0,0,0,0,-0.2792,-0.2789,-0.2786,-0.2785,-0.2778,-0.2767,-0.2765,-0.2766,-0.2752,-0.2749,-0.2751,-0.2749,-0.2737,-0.2737,-0.2736,-0.276,-0.2729,-0.2729,-0.2729,-0.2773,-0.2774,-0.2775,0,0,0,0,0,0,-0.2792,-0.2792,-0.2786,-0.2786,-0.2785,-0.2768,-0.2769,-0.2766,-0.2765,-0.275,-0.2747,-0.2753,-0.2737,-0.2736,-0.2746,-0.2759,-0.2729,-0.2729,-0.2772,-0.2773,-0.2775,-0.2808,0,0,0,0,0,0,-0.2792,-0.2792,-0.2799,-0.2786,-0.2785,-0.2796,-0.277,-0.2766,-0.2766,-0.2763,-0.2752,-0.2749,-0.2736,-0.2745,-0.2746,-0.2759,-0.273,-0.277,-0.2772,-0.2774,-0.2806,-0.2811,-0.2815,0,0,0,0,0,-0.2792,-0.2809,-0.28,-0.28,-0.2794,-0.2796,-0.2796,-0.278,-0.2767,-0.2774,-0.2765,-0.2749,-0.2758,-0.2747,-0.2747,-0.2761,-0.2769,-0.2772,-0.2774,-0.2804,-0.281,-0.2815,0,0,0,0,0,0,-0.2824,-0.2807,-0.2796,-0.281,-0.2805,-0.2791,-0.28,-0.2787,-0.2785,-0.2783,-0.2763,-0.2761,-0.2774,-0.2768,-0.2756,-0.278,-0.2761,-0.2764,-0.2784,-0.2789,-0.2794,-0.2795,-0.273,0,0,0,0,0,-0.2833,-0.2836,-0.2821,-0.2835,-0.2832,-0.2817,-0.2817,-0.2806,-0.28,-0.2798,-0.2789,-0.2784,-0.2786,-0.2787,-0.2788,-0.2805,-0.2802,-0.2814,-0.2819,-0.2823,-0.2825,-0.2835,-0.284,-0.2783,-0.2783,-0.2783,0,0,-0.2851,-0.2842,-0.2845,-0.2841,-0.2835,-0.284,-0.2815,-0.2821,-0.2824,-0.2799,-0.2807,-0.2801,-0.2794,-0.2808,-0.2813,-0.2803,-0.2841,-0.2826,-0.2829,-0.2829,-0.2838,-0.2843,-0.2848,-0.2784,-0.2784,-0.2784,0,0,-0.2886,-0.2879,-0.289,-0.2885,-0.2877,-0.2867,-0.287,-0.2858,-0.2853,-0.2861,-0.2842,-0.2846,-0.2849,-0.2845,-0.2844,-0.2878,-0.2864,-0.2879,-0.2903,-0.2912,-0.2917,-0.2921,-0.2934,-0.2939,-0.2881,-0.2881,-0.2881,0,-0.2909,-0.2915,-0.2897,-0.2904,-0.2903,-0.288,-0.2891,-0.2887,-0.2881,-0.2881,-0.2869,-0.2873,-0.2867,-0.288,-0.2888,-0.2888,-0.2891,-0.288,-0.2917,-0.2921,-0.2925,-0.2937,-0.2942,-0.2883,-0.2883,-0.2883,-0.2882,0,-0.2944,-0.2948,-0.2958,-0.2952,-0.2952,-0.2961,-0.2945,-0.2947,-0.2936,-0.2927,-0.2936,-0.2928,-0.2927,-0.2929,-0.2918,-0.2941,-0.2935,-0.2921,-0.2901,-0.2932,-0.2944,-0.2948,-0.2886,-0.2885,-0.2885,-0.2884,0,0,-0.3,-0.2984,-0.2988,-0.2985,-0.2975,-0.2978,-0.2986,-0.2985,-0.2987,-0.2983,-0.299,-0.2994,-0.2981,-0.2979,-0.2967,-0.2976,-0.3004,-0.296,-0.296,-0.297,-0.303,-0.3041,-0.3047,-0.2995,-0.2995,-0.2996,-0.3031,0,-0.3033,-0.3046,-0.3031,-0.3047,-0.3051,-0.3029,-0.3037,-0.3032,-0.3023,-0.3026,-0.3017,-0.302,-0.3002,-0.3001,-0.3008,-0.2999,-0.3016,-0.2996,-0.3002,-0.3002,-0.3005,-0.3053,-0.3065,-0.3098,-0.3035,-0.3036,-0.3036,0,-0.3074,-0.3072,-0.3089,-0.3078,-0.3079,-0.3086,-0.3084,-0.3087,-0.3081,-0.3074,-0.3072,-0.3058,-0.3066,-0.3047,-0.3058,-0.3045,-0.3046,-0.3042,-0.3043,-0.3043,-0.3022,-0.3056,-0.3108,-0.3114,-0.3043,-0.3042,-0.3042,0,-0.3114,-0.3115,-0.3126,-0.3124,-0.3111,-0.3117,-0.3112,-0.3105,-0.3106,-0.3104,-0.3104,-0.3103,-0.3103,-0.3103,-0.309,-0.3076,-0.3103,-0.3082,-0.3098,-0.3099,-0.3105,-0.3105,-0.316,-0.3105,-0.3105,-0.3105,-0.3104,0,-0.3154,-0.3165,-0.3144,-0.315,-0.3163,-0.3145,-0.3158,-0.3151,-0.3145,-0.315,-0.3131,-0.3136,-0.3117,-0.3121,-0.311,-0.3121,-0.3121,-0.3117,-0.3114,-0.3119,-0.312,-0.312,-0.3118,-0.3106,-0.3106,-0.3105,-0.3105,0,-0.3201,-0.3187,-0.3197,-0.3184,-0.3181,-0.3191,-0.318,-0.3186,-0.3177,-0.3184,-0.3184,-0.317,-0.3173,-0.3159,-0.316,-0.3152,-0.317,-0.3162,-0.3172,-0.317,-0.3188,-0.3187,-0.3245,-0.3252,-0.3192,-0.3192,-0.3193,0,-0.3227,-0.3236,-0.3224,-0.3226,-0.3222,-0.3225,-0.3226,-0.3209,-0.321,-0.3204,-0.3211,-0.3212,-0.3213,-0.3219,-0.3209,-0.321,-0.3203,-0.3223,-0.3203,-0.3208,-0.3204,-0.3204,-0.3206,-0.3228,-0.3229,-0.3229,-0.323,0,-0.3277,-0.327,-0.3271,-0.3269,-0.327,-0.3269,-0.3266,-0.3269,-0.325,-0.3253,-0.3256,-0.3256,-0.3257,-0.3259,-0.3258,-0.3253,-0.3239,-0.3236,-0.324,-0.3246,-0.3251,-0.325,-0.3184,-0.3235,-0.3234,-0.3234,-0.3234,-0.3234,-0.3315,-0.3322,-0.3315,-0.3317,-0.3313,-0.3311,-0.3316,-0.3307,-0.3309,-0.3308,-0.3298,-0.3303,-0.3297,-0.3294,-0.329,-0.3295,-0.3285,-0.3291,-0.3292,-0.3294,-0.3298,-0.325,-0.3294,-0.3294,-0.3294,-0.3294,-0.3294,0,-0.3365,-0.3359,-0.3361,-0.3357,-0.3359,-0.3345,-0.3341,-0.3344,-0.3348,-0.3344,-0.3345,-0.3348,-0.335,-0.334,-0.3341,-0.3346,-0.334,-0.3347,-0.3347,-0.3347,-0.3306,-0.3303,-0.3352,-0.3352,-0.3352,-0.3352,-0.3352,-0.3352,-0.3391,-0.3401,-0.3393,-0.3402,-0.3396,-0.3401,-0.34,-0.3398,-0.3395,-0.34,-0.3401,-0.3394,-0.3388,-0.3388,-0.3389,-0.3386,-0.3388,-0.3398,-0.3393,-0.3355,-0.3349,-0.3344,-0.3341,-0.3398,-0.3398,-0.3433,-0.3434,-0.3434]},{"header":{"parameterUnit":"m.s-1","parameterCategory":1,"la1":30.2991,"la2":30.254,"lo1":-89.0895,"lo2":-89.0444,"dy":0.0017,"dx":0.0017,"nx":28,"ny":28,"refTime":"2025-09-16T21:00:00:Z","depth":0,"parameterNumber":3,"parameterNumberName":"V-component_of_WINDS"},"data":[0,0,0,0,0,0,0,0,0,0,0,0,0,0,0,0,0,0,0,0,0,0,0,0,0,0,0,0,0,0,0,0,0,0,0,0,0,0,0,0,0,0,0,0,0,0,0,0,0,0,0,0,0,0,0,0,0,0,2.7558,2.7558,0,2.7555,2.7555,2.7555,2.7558,2.7558,2.7558,2.7558,2.7554,2.7554,2.7553,0,0,0,0,0,0,0,0,0,0,0,0,0,2.7566,2.7566,2.7558,2.7558,2.7558,2.7555,2.7555,2.7555,2.7558,2.7558,2.7558,2.7558,2.7554,2.7554,2.7553,0,0,0,0,0,0,0,0,0,0,0,0,0,2.7563,2.7566,2.7558,2.7559,2.7559,2.7555,2.7555,2.7555,2.7558,2.7558,2.7558,2.7558,2.7554,2.7554,2.7553,2.7548,0,0,2.7552,2.7552,0,0,0,0,0,0,0,0,2.7563,2.7562,2.7559,2.7559,2.7559,2.7557,2.7556,2.7553,2.7558,2.7558,2.7558,2.7558,2.7555,2.7554,2.7553,2.7547,2.7547,2.7552,2.7552,2.7552,2.7552,0,0,0,0,0,0,0,2.7563,2.7563,2.7557,2.7559,2.7559,2.756,2.7559,2.7556,2.7555,2.7558,2.7558,2.7558,2.7555,2.7554,2.7553,2.7547,2.7552,2.7552,2.7552,2.7552,2.7537,2.7537,0,0,0,0,0,0,2.7563,2.7563,2.7557,2.7557,2.7562,2.7559,2.7559,2.7558,2.7556,2.7555,2.7558,2.7558,2.7554,2.7554,2.7553,2.7546,2.7552,2.7552,2.7551,2.7537,2.7537,2.7537,0,0,0,0,0,0,2.7564,2.7563,2.7557,2.756,2.7559,2.7559,2.7557,2.7557,2.7556,2.7555,2.7555,2.7557,2.7554,2.7553,2.7549,2.7546,2.7551,2.7551,2.7537,2.7537,2.7537,2.7533,0,0,0,0,0,0,2.7564,2.7563,2.7561,2.756,2.7559,2.7554,2.7557,2.7557,2.7556,2.7556,2.7554,2.7554,2.7554,2.755,2.7549,2.7546,2.7551,2.7538,2.7537,2.7537,2.7533,2.7532,2.7532,0,0,0,0,0,2.7564,2.756,2.7561,2.756,2.7557,2.7553,2.7553,2.7554,2.7556,2.7554,2.7553,2.7554,2.7547,2.7549,2.7548,2.7545,2.7538,2.7537,2.7537,2.7534,2.7533,2.7532,0,0,0,0,0,0,2.756,2.756,2.7561,2.7556,2.7555,2.7554,2.7551,2.7553,2.755,2.7551,2.7551,2.7551,2.7546,2.7545,2.7548,2.754,2.7543,2.7542,2.754,2.7539,2.7539,2.7539,2.7551,0,0,0,0,0,2.7559,2.7556,2.7556,2.7552,2.7551,2.7551,2.755,2.7551,2.7549,2.7549,2.7548,2.7546,2.7543,2.7541,2.7539,2.7533,2.7533,2.7531,2.753,2.753,2.7529,2.7526,2.7525,2.7535,2.7535,2.7535,0,0,2.7555,2.7555,2.7553,2.7551,2.755,2.7547,2.7551,2.7548,2.7546,2.7548,2.7544,2.7543,2.7541,2.7536,2.7534,2.7535,2.7526,2.7529,2.7529,2.7528,2.7525,2.7524,2.7523,2.7535,2.7535,2.7535,0,0,2.7548,2.7548,2.7545,2.7544,2.7543,2.7543,2.7542,2.7541,2.7541,2.7537,2.7538,2.7536,2.7531,2.753,2.7529,2.7522,2.7523,2.7521,2.7517,2.7514,2.7513,2.7512,2.751,2.7509,2.752,2.752,2.752,0,2.7545,2.7541,2.7542,2.7539,2.7538,2.7541,2.7537,2.7536,2.7534,2.7533,2.7535,2.7529,2.7528,2.7523,2.7521,2.752,2.7519,2.7521,2.7513,2.7512,2.7512,2.7509,2.7508,2.752,2.752,2.752,2.752,0,2.7536,2.7534,2.7531,2.7529,2.7528,2.7524,2.7525,2.7524,2.7525,2.7525,2.752,2.7519,2.7517,2.7516,2.7516,2.7511,2.7511,2.7513,2.7516,2.7511,2.7508,2.7507,2.752,2.752,2.752,2.752,0,0,2.7526,2.7525,2.7524,2.7524,2.7523,2.7521,2.7518,2.7515,2.7514,2.7513,2.751,2.7506,2.7508,2.7506,2.7507,2.7504,2.7499,2.7507,2.7507,2.7505,2.7492,2.749,2.7489,2.75,2.75,2.7499,2.7492,0,2.7518,2.7513,2.7514,2.7509,2.7507,2.7509,2.7506,2.7506,2.7506,2.7503,2.7504,2.7501,2.7504,2.7503,2.75,2.75,2.7496,2.7501,2.7497,2.7496,2.7496,2.7488,2.7486,2.7479,2.7491,2.7491,2.7491,0,2.7509,2.7507,2.7502,2.7502,2.7501,2.7498,2.7496,2.7494,2.7493,2.7494,2.7492,2.7494,2.749,2.7494,2.7489,2.7492,2.7491,2.749,2.749,2.7489,2.7493,2.7486,2.7476,2.7475,2.7489,2.7489,2.749,0,2.7501,2.7498,2.7494,2.7494,2.7493,2.7492,2.7491,2.7491,2.7489,2.7488,2.7487,2.7485,2.7484,2.7482,2.7483,2.7485,2.7478,2.7481,2.7477,2.7477,2.7475,2.7475,2.7465,2.7475,2.7475,2.7475,2.7475,0,2.7492,2.7488,2.7491,2.7488,2.7484,2.7486,2.7482,2.7482,2.7482,2.7479,2.7482,2.7479,2.7481,2.7478,2.7479,2.7475,2.7474,2.7474,2.7474,2.7473,2.7473,2.7472,2.7472,2.7475,2.7475,2.7475,2.7475,0,2.7482,2.7484,2.748,2.748,2.748,2.7477,2.7478,2.7475,2.7476,2.7473,2.7472,2.7473,2.747,2.7471,2.7468,2.7469,2.7463,2.7464,2.7464,2.7464,2.746,2.746,2.7447,2.7446,2.7458,2.7458,2.7458,0,2.7476,2.7473,2.7474,2.7473,2.7472,2.747,2.7469,2.7471,2.747,2.7469,2.7467,2.7464,2.7463,2.7458,2.7458,2.7456,2.7457,2.7453,2.7456,2.7456,2.7456,2.7456,2.7456,2.7452,2.7451,2.7451,2.7451,0,2.7465,2.7466,2.7464,2.7463,2.7462,2.7461,2.746,2.7459,2.7461,2.7459,2.7457,2.7456,2.7453,2.7451,2.7449,2.7448,2.745,2.745,2.7449,2.7448,2.7448,2.7447,2.7461,2.745,2.745,2.745,2.7451,2.7451,2.7456,2.7454,2.7454,2.7452,2.7452,2.7451,2.7449,2.745,2.7448,2.7446,2.7448,2.7445,2.7445,2.7442,2.7442,2.7439,2.7441,2.7439,2.7439,2.7438,2.7438,2.7449,2.7439,2.7439,2.7439,2.7439,2.7439,0,2.7445,2.7445,2.7443,2.7443,2.7441,2.7444,2.7443,2.7442,2.7439,2.7439,2.7437,2.7435,2.7433,2.7433,2.7431,2.7429,2.743,2.7428,2.7428,2.7428,2.7437,2.7438,2.7428,2.7428,2.7428,2.7428,2.7428,2.7428,2.7438,2.7435,2.7436,2.7432,2.7433,2.743,2.7429,2.7429,2.7429,2.7426,2.7424,2.7425,2.7424,2.7423,2.7421,2.7421,2.742,2.7418,2.7418,2.7426,2.7427,2.7428,2.7429,2.7418,2.7418,2.741,2.741,2.741]}]]